World > North America > United States > Minnesota > Charlesville

Hourly Charlesville, MN Regional Weather

Feedback E-mail the Weather

Quick WX

Charlesville, MN Weather Maps

°F °C°F °C
Charlesville Weather Map
UTC Time: 8/12/2022, 09:50
Your Time:

Charlesville, MN Regional Weather

Expires:202208121000;;959896
ASUS43 KMPX 120910
RWRMN 
WEATHER ROUNDUP FOR MINNESOTA
NATIONAL WEATHER SERVICE TWIN CITIES/CHANHASSEN MN
400 AM CDT FRI AUG 12 2022


NOTE: "FAIR" INDICATES FEW OR NO CLOUDS BELOW 12,000 FEET WITH NO
SIGNIFICANT WEATHER AND/OR OBSTRUCTIONS TO VISIBILITY. N/A MEANS
CURRENT SKY AND/OR WEATHER CONDITIONS ARE NOT AVAILABLE.


MNZ029>031-032-039>041-046>048-054>057-064-121000-
   West Central Minnesota   
  
CITY           SKY/WX    TMP DP  RH WIND       PRES   REMARKS
FERGUS FALLS   CLOUDY    70  61  73 E9        30.03S                  
WHEATON          N/A     66  57  72 SE15      30.03F                  
MORRIS           N/A     66  57  72 SE16G22   30.06S                  
ALEXANDRIA     CLOUDY    66  61  84 SE13      30.11S                  
ELBOW LAKE     CLOUDY    67  61  81 SE15G21   30.05F                  
WADENA         RAIN      63  57  82 E10       30.15R                  
GLENWOOD       MOCLDY    66  61  82 E13       30.09F                  
APPLETON         N/A     66  57  72 S12       30.03F                  
BENSON         CLOUDY    66  61  82 S13       30.07S                  
ORTONVILLE       N/A     64  61  88 SE12      30.01S                  
MADISON        MOCLDY    66  61  82 SE10G16   30.04F                  
WILLMAR        MOCLDY    70  61  73 SE16G22   30.12F                  
$$

SKY/WX - Weather  TMP - Temperature  DP - Dew Point  RH - Humidity
WIND - Wind Direction/Speed PRES - Barometric Pressure VSB - Visibility
WCI - Wind Chill Index E13G22 Wind - East Wind 13 mph/Gusts of 22 mph

Trending Headlines

Charlesville Radar Loop



Charlesville Quick Facts


National Two Day Weather Forecast


E-mail the Charlesville Weather Forecast

Voice your opinion or tell us about page issues...